Regional Weather Roundup
Issued by NWS Kansas City/Pleasant Hill, MO

Home | Current Version | Previous Version | Text Only | Print | Product List | Glossary On
Versions: 1 2 3 4 5 6 7 8 9 10 11 12 13 14 15 16 17 18 19 20 21 22 23 24 25 26 27
000
ASUS43 KEAX 292310
RWREAX

WEATHER ROUNDUP FOR EASTERN KANSAS AND NORTHWEST MISSOURI
NATIONAL WEATHER SERVICE KANSAS CITY/PLEASANT HILL MO
600 PM CDT FRI APR 29 2016

KSZ040-057-103>105-MOZ028-029-037-043-300000-
...KANSAS CITY METROPOLITAN AREA...

CITY           SKY/WX    TMP DP  RH WIND       PRES   REMARKS
K.C. INTL      HVY RAIN  52  50  93 N9        29.97R FOG
K.C. DOWNTOWN  RAIN      54  50  86 NE6       29.96R FOG
LEES SUMMIT    HVY RAIN  53  50  89 NE14      29.92R FOG
OLATHE - IXD   RAIN      52  51  97 N17       29.89R FOG
OLATHE - OJC   RAIN      52  50  93 NE14      29.89R FOG
LAWRENCE       LGT RAIN  51  50  96 NE18      29.86F FOG

$$

MOZ001>008-011>017-020>025-030>033-038>040-044>046-053-054-300000-
...NORTHERN AND CENTRAL MISSOURI...

CITY           SKY/WX    TMP DP  RH WIND       PRES   REMARKS
ST. JOSEPH     RAIN      52  49  89 N9        29.99R FOG
MOSBY          DRIZZLE   54  50  87 NE6       29.93R
WARRENSBURG    CLOUDY    57  50  77 NE6       29.93R
WHITEMAN AFB   CLOUDY    59  53  79 NE8       29.91R
CLINTON        CLOUDY    61  52  72 NE8       29.92R
SEDALIA        CLOUDY    62  52  69 E14G22    29.90R
WARSAW         NOT AVBL
CHILLICOTHE      N/A     54  49  83 NE6       29.98S
KIRKSVILLE     CLOUDY    53  45  74 NE12G18   30.01R

$$

MOZ041-047>049-056>058-063>065-088>090-097-300000-
...EASTERN AND SOUTHERN MISSOURI...

CITY           SKY/WX    TMP DP  RH WIND       PRES   REMARKS
ST. LOUIS INTL PTSUNNY   64  52  64 E10       29.97F
SPIRIT OF STL  PTSUNNY   63  52  67 E12       29.93F
COLUMBIA       CLOUDY    63  52  67 E13       29.91F
JEFFERSON CITY CLOUDY    64  51  62 E12       29.91S
ROLLA          CLOUDY    60  52  74 E13       29.89F
OSAGE BEACH    CLOUDY    61  46  59 E12       29.88S
SPRINGFIELD    CLOUDY    62  55  77 E16G24    29.80S
BRANSON        LGT RAIN  57  57 100 SE16      29.81S VSB 1/2
JOPLIN         CLOUDY    62  56  80 E10G23    29.73F
WEST PLAINS    CLOUDY    59  56  89 E9        29.87F

$$

IAZ060-094-KSZ022-034>040-054-083-096-NEZ052-066-093-300000-
...KANSAS...SOUTHEAST NEBRASKA AND IOWA...

CITY           SKY/WX    TMP DP  RH WIND       PRES   REMARKS
TOPEKA         CLOUDY    51  49  92 NE22G32   29.83F
MANHATTAN      CLOUDY    51  46  83 E20G31    29.82S
EMPORIA        CLOUDY    52  50  93 NE23G30   29.76F
CHANUTE        TSTM      59  54  83 NE15G23   29.76S
WICHITA        CLOUDY    54  49  83 NE20      29.70F
OMAHA          CLOUDY    49  43  80 E10       30.00F
LINCOLN        CLOUDY    48  41  76 NE17      29.96F
FALLS CITY     RAIN      51  48  89 NE15      29.92F FOG
LAMONI         CLOUDY    50  44  80 NE15      29.99F
DES MOINES     CLOUDY    51  40  65 NE13      30.05F

$$





USA.gov is the U.S. government's official web portal to all federal, state and local government web resources and services.